| time (UTC) | temp C | wind direction | speed KPH | gust KPH | rain 1hr cm | rain 24hr cm | rain mn cm | humidity % | barometer mb |
| 20260506180330 | 12 | 40 | 6.4 | 11.3 | 0.00 | 0.00 | 0.00 | 62 | 1013.4 |
| 20260506173325 | 12 | 36 | 8.0 | 14.5 | 0.00 | 0.00 | 0.00 | 59 | 1013.2 |
| 20260506170320 | 12 | 65 | 4.8 | 11.3 | 0.00 | 0.00 | 0.00 | 58 | 1013.1 |
| 20260506163330 | 12 | 42 | 6.4 | 17.7 | 0.00 | 0.00 | 0.00 | 59 | 1013.2 |
| 20260506160324 | 14 | 69 | 8.0 | 17.7 | 0.00 | 0.00 | 0.00 | 50 | 1013.0 |
| 20260506153319 | 13 | 22 | 6.4 | 12.9 | 0.00 | 0.00 | 0.00 | 55 | 1013.1 |
| 20260506150353 | 15 | 17 | 12.9 | 20.9 | 0.00 | 0.00 | 0.00 | 46 | 1013.1 |
| 20260506143325 | 13 | 25 | 9.7 | 16.1 | 0.00 | 0.00 | 0.00 | 52 | 1013.3 |
| 20260506140319 | 13 | 13 | 6.4 | 16.1 | 0.00 | 0.00 | 0.00 | 53 | 1013.4 |
| 20260506133332 | 15 | 13 | 9.7 | 20.9 | 0.00 | 0.00 | 0.00 | 51 | 1013.4 |
| 20260506130325 | 14 | 17 | 12.9 | 22.5 | 0.00 | 0.00 | 0.00 | 54 | 1013.5 |
| 20260506123320 | 14 | 31 | 11.3 | 25.7 | 0.00 | 0.00 | 0.00 | 56 | 1013.4 |
| 20260506120330 | 13 | 15 | 9.7 | 20.9 | 0.00 | 0.00 | 0.00 | 58 | 1013.7 |
| 20260506113324 | 12 | 11 | 11.3 | 20.9 | 0.00 | 0.00 | 0.00 | 59 | 1013.8 |
| 20260506110338 | 12 | 51 | 11.3 | 17.7 | 0.00 | 0.00 | 0.00 | 62 | 1013.9 |
| 20260506103332 | 11 | 19 | 11.3 | 20.9 | 0.00 | 0.00 | 0.00 | 64 | 1014.2 |
| 20260506100327 | 10 | 344 | 9.7 | 16.1 | 0.00 | 0.00 | 0.00 | 70 | 1014.1 |
| 20260506093322 | 8 | 360 | 12.9 | 24.1 | 0.00 | 0.00 | 0.00 | 72 | 1014.1 |
| 20260506090316 | 8 | 34 | 6.4 | 16.1 | 0.00 | 0.00 | 0.00 | 77 | 1014.1 |
| 20260506083329 | 7 | 61 | 4.8 | 12.9 | 0.00 | 0.00 | 0.00 | 79 | 1014.0 |
| 20260506080323 | 7 | 44 | 9.7 | 16.1 | 0.00 | 0.00 | 0.00 | 81 | 1014.0 |
| 20260506073316 | 7 | 26 | 9.7 | 16.1 | 0.00 | 0.00 | 0.00 | 82 | 1013.9 |
| 20260506070330 | 7 | 19 | 9.7 | 14.5 | 0.00 | 0.00 | 0.00 | 84 | 1013.8 |
| 20260506060319 | 6 | 30 | 9.7 | 14.5 | 0.00 | 0.00 | 0.00 | 84 | 1013.5 |
| 20260506050325 | 6 | 28 | 8.0 | 11.3 | 0.00 | 0.00 | 0.00 | 83 | 1013.4 |
| 20260506043320 | 6 | 44 | 3.2 | 11.3 | 0.00 | 0.00 | 0.00 | 82 | 1013.3 |
| 20260506040314 | 6 | 32 | 8.0 | 14.5 | 0.00 | 0.00 | 0.00 | 81 | 1013.2 |
| 20260506033329 | 7 | 45 | 8.0 | 14.5 | 0.00 | 0.00 | 0.00 | 82 | 1013.4 |
| 20260506030321 | 7 | 29 | 6.4 | 11.3 | 0.00 | 0.00 | 0.00 | 82 | 1013.4 |
| 20260506023332 | 7 | 49 | 9.7 | 17.7 | 0.00 | 0.00 | 0.00 | 84 | 1013.4 |
| 20260506020325 | 8 | 67 | 6.4 | 14.5 | 0.00 | 0.00 | 0.00 | 84 | 1013.3 |
| 20260506013320 | 8 | 65 | 6.4 | 9.7 | 0.00 | 0.00 | 0.00 | 82 | 1013.4 |
| 20260506010335 | 8 | 74 | 6.4 | 17.7 | 0.00 | 0.00 | 0.00 | 81 | 1013.5 |
| 20260506003327 | 8 | 42 | 9.7 | 17.7 | 0.00 | 0.00 | 0.00 | 79 | 1013.6 |
| 20260506000322 | 8 | 49 | 12.9 | 19.3 | 0.00 | 0.00 | 0.00 | 79 | 1013.5 |
| 20260505233334 | 9 | 40 | 9.7 | 17.7 | 0.00 | 0.00 | 0.00 | 82 | 1013.4 |
| 20260505230344 | 10 | 57 | 11.3 | 19.3 | 0.00 | 0.00 | 0.00 | 82 | 1013.5 |
| 20260505223336 | 10 | 59 | 9.7 | 17.7 | 0.00 | 0.00 | 0.00 | 81 | 1013.4 |
| 20260505220329 | 10 | 19 | 6.4 | 17.7 | 0.00 | 0.00 | 0.00 | 82 | 1013.2 |
| 20260505213325 | 11 | 16 | 12.9 | 19.3 | 0.00 | 0.00 | 0.00 | 80 | 1013.1 |
| 20260505210337 | 11 | 36 | 11.3 | 19.3 | 0.00 | 0.00 | 0.00 | 73 | 1013.0 |
| 20260505203330 | 11 | 355 | 8.0 | 14.5 | 0.00 | 0.00 | 0.00 | 72 | 1012.9 |
| 20260505200325 | 11 | 13 | 6.4 | 12.9 | 0.00 | 0.00 | 0.00 | 71 | 1012.7 |
| 20260505193319 | 12 | 344 | 8.0 | 17.7 | 0.00 | 0.00 | 0.00 | 69 | 1012.5 |
| 20260505190313 | 12 | 9 | 8.0 | 16.1 | 0.00 | 0.00 | 0.00 | 69 | 1012.3 |
| 20260505183324 | 12 | 5 | 9.7 | 19.3 | 0.00 | 0.00 | 0.00 | 67 | 1012.1 |